Regional Weather Roundup
Issued by NWS Northern Indiana

Home | Current Version | Previous Version | Graphics & Text | Print | Product List | Glossary On
Versions: 1 2 3 4 5 6 7 8 9 10 11 12 13 14 15 16 17 18 19 20 21 22 23 24 25 26 27 28 29 30 31 32 33 34 35 36 37 38 39 40 41 42 43 44 45 46 47 48 49 50
000
ASUS43 KIWX 252000
RWRIWX

KIWX WEATHER ROUNDUP
NATIONAL WEATHER SERVICE NORTHERN INDIANA
400 PM EDT WED MAY 25 2016

NOTE: "FAIR" INDICATES FEW OR NO CLOUDS BELOW 12,000 FEET WITH NO
SIGNIFICANT WEATHER AND/OR OBSTRUCTIONS TO VISIBILITY.

* THESE STATIONS ARE NOT UNDER NWS QUALITY CONTROL. THEY ALSO MAY NOT
  REPORT WEATHER SUCH AS PRECIPITATION OR FOG.

INZ001>027-252100-
NORTHERN INDIANA

CITY           SKY/WX    TMP DP  RH WIND       PRES   REMARKS
GARY*          PTSUNNY   86  68  54 S8        29.95F
SOUTH BEND     MOSUNNY   84  60  44 S13       29.98F
ELKHART*       MOSUNNY   84  64  51 S9        29.99F
GOSHEN         MOSUNNY   83  57  41 S12G21    29.99F
ANGOLA*        PTSUNNY   82  61  47 S10       30.02F
FORT WAYNE     PTSUNNY   84  58  40 SW15G21   30.02F

$$
INZ028>050-252100-
CENTRAL INDIANA

CITY           SKY/WX    TMP DP  RH WIND       PRES   REMARKS
LAFAYETTE      MOSUNNY   83  62  49 S13       29.98F
KOKOMO*        MOSUNNY   84  63  48 SW13G24   30.01S
MUNCIE*        MOSUNNY   86  58  38 SW15G22   30.03F
INDIANAPOLIS   PTSUNNY   83  63  50 SW17      30.02F

$$
MIZ043>046-050>051-056>058-064>065-071>073-077>080-252100-
SOUTHWEST LOWER MICHIGAN

CITY           SKY/WX    TMP DP  RH WIND       PRES   REMARKS
BATTLE CREEK   MOSUNNY   83  59  44 S13       30.01F
BENTON HARBOR  PTSUNNY   84  64  50 VRB6      29.96F
COLDWATER*     CLOUDY    82  60  47 S8        30.01F
HILLSDALE*     MOSUNNY   82  49  32 SW10      30.04F
HOLLAND        CLOUDY    82  63  52 VRB6      29.98F
GRAND RAPIDS   PTSUNNY   87  59  38 S9        29.98F
KALAMAZOO      MOSUNNY   85  59  41 S8        29.99F
STURGIS*       PTSUNNY   83  58  43 S12       30.00F
THREE RIVERS*  FAIR      85  57  37 S7        30.00F

$$
OHZ001>008-015>018-024>025-252100-
NORTHWEST OHIO

CITY           SKY/WX    TMP DP  RH WIND       PRES   REMARKS
DEFIANCE       CLOUDY    83  58  42 S10       30.04F
FINDLAY        CLOUDY    80  55  42 S16       30.06F
TOLEDO EXPRESS PTSUNNY   82  57  42 S12G22    30.05F
TOLEDO METCALF CLOUDY    82  57  42 S20G25    30.06F
LIMA           CLOUDY    82  59  45 S17G25    30.05F

$$
AND FOR LAKE MICHIGAN COASTAL AND OPEN LAKE BUOY OBSERVATIONS

STATION/POSITION TEMP    WIND        PRES    VSBY  WAVE
                 AIR SEA DIR/SP/G                  HT/PER
                 (F)     (DEG/KT/KT) (MB)    (MI)  (FT/S)
CALUMET HARBOR            70/  9/ 12   N/A
MICHIGAN CITY     68      10/  9/  9   N/A
BURNS HARBOR      84     180/  7/ 14 1014.9F
SAINT JOSEPH      77     340/  2/  3 1016.6F
SOUTH LAKE BUOY   59 53  140/  4/  4 1015.0          0
4 MI NW BRIDGMAN  69 65   10/  4/  6   N/A           0
MICHIGAN CITY     66 61   40/  6/  8   N/A           0

$$
&&



USA.gov is the U.S. government's official web portal to all federal, state and local government web resources and services.